Location: Unspecified
(0.0000°N, 0.0000°E)
Time: 22:21:25
(UTC+00:00)

SR - Visible Passes

Search period start: 25 April 2017 00:00
Search period end: 05 May 2017 00:00
Orbit: 573 x 884 km, 66.7° (Epoch: 24 April)

Date Brightness Start Highest point End Pass type
(mag) Time Alt. Az. Time Alt. Az. Time Alt. Az.
25 Apr ? 03:58:28 44° N 03:58:28 44° N 04:02:10 10° NNE visible
26 Apr ? 03:11:11 16° NE 03:11:11 16° NE 03:12:25 10° NE visible
26 Apr ? 04:50:39 12° NW 04:50:39 12° NW 04:51:42 10° NW visible
27 Apr ? 04:03:15 17° NNW 04:03:15 17° NNW 04:04:45 10° N visible
28 Apr ? 03:15:46 11° NNE 03:15:46 11° NNE 03:15:59 10° NNE visible
